,,Stat1,,Stat2,,Stat3,,Stat4,,Wind1,,Wind1,
time,status,PR1M_SUM,status,RH1M_AVG,status,SR1M_AVG,status,TA1M_AVG,status,W1dAve1m,status,W1sAve1m,
1999-12-22, 00:01:00,VALID,0,VALID,87.8374,VALID,-0.0169808,VALID,20.7046,VALID,213,VALID,1.0502,
1999-12-22, 00:02:00,VALID,0,VALID,87.8997,VALID,-0.0339617,VALID,20.6882,VALID,214,VALID,0.645559,
1999-12-22, 00:03:00,VALID,0,VALID,88.037,VALID,-0.0339617,VALID,20.6822,VALID,216,VALID,0.770633,
1999-12-22, 00:04:00,VALID,0,VALID,88.1553,VALID,0,VALID,20.6793,VALID,247,VALID,0.647204,
1999-12-22, 00:05:00,VALID,0,VALID,88.3765,VALID,-0.0849042,VALID,20.6531,VALID,211,VALID,0.543708,
1999-12-22, 00:06:00,VALID,0,VALID,88.2023,VALID,0.0169808,VALID,20.6402,VALID,193,VALID,0.607171,
1999-12-22, 00:07:00,VALID,0,VALID,88.2379,VALID,-0.0169808,VALID,20.6268,VALID,244,VALID,0.425881,
1999-12-22, 00:08:00,VALID,0,VALID,88.2786,VALID,0,VALID,20.6268,VALID,221,VALID,0.544408,
1999-12-22, 00:09:00,VALID,0,VALID,88.0624,VALID,-0.0169808,VALID,20.6367,VALID,232,VALID,1.10857,
1999-12-22, 00:10:00,VALID,0,VALID,87.9556,VALID,0,VALID,20.6496,VALID,221,VALID,1.51753,
1999-12-22, 00:11:00,VALID,0,VALID,87.8997,VALID,-0.0169808,VALID,20.6556,VALID,223,VALID,1.14824,
1999-12-22, 00:12:00,VALID,0,VALID,87.9556,VALID,0,VALID,20.669,VALID,213,VALID,1.4891,
1999-12-22, 00:13:00,VALID,0,VALID,87.8539,VALID,0.0169808,VALID,20.6782,VALID,199,VALID,1.46152,
1999-12-22, 00:14:00,VALID,0,VALID,87.2664,VALID,0,VALID,20.7009,VALID,217,VALID,1.76974,
1999-12-22, 00:15:00,VALID,0,VALID,87.2346,VALID,0,VALID,20.7461,VALID,210,VALID,1.39844,
1999-12-22, 00:16:00,VALID,0,VALID,87.3084,VALID,0,VALID,20.7854,VALID,212,VALID,1.18433,
1999-12-22, 00:17:00,VALID,0,VALID,87.4648,VALID,-0.0169808,VALID,20.7889,VALID,216,VALID,1.23129,
1999-12-22, 00:18:01,VALID,0,VALID,87.48,VALID,-0.0169808,VALID,20.7655,VALID,206,VALID,0.871795,
1999-12-22, 00:19:00,VALID,0,VALID,87.5869,VALID,0,VALID,20.769,VALID,213,VALID,1.30243,
1999-12-22, 00:20:00,VALID,0,VALID,87.4241,VALID,-0.0169808,VALID,20.7723,VALID,219,VALID,1.09375,
1999-12-22, 00:21:00,VALID,0,VALID,87.597,VALID,-0.0169808,VALID,20.782,VALID,217,VALID,1.18606,
1999-12-22, 00:22:00,VALID,0,VALID,87.7738,VALID,0.0169808,VALID,20.7755,VALID,217,VALID,1.05649,
1999-12-22, 00:23:00,VALID,0,VALID,88.0128,VALID,0,VALID,20.7593,VALID,205,VALID,0.620994,
1999-12-22, 00:24:00,VALID,0,VALID,87.9226,VALID,0,VALID,20.7531,VALID,221,VALID,1.20853,
1999-12-22, 00:25:00,VALID,0,VALID,88.0319,VALID,-0.0169808,VALID,20.7272,VALID,220,VALID,1.54258,
1999-12-22, 00:26:00,VALID,0,VALID,88.0904,VALID,0,VALID,20.7006,VALID,222,VALID,1.81339,
1999-12-22, 00:27:00,VALID,0,VALID,88.2544,VALID,-0.0509425,VALID,20.7143,VALID,224,VALID,1.21615,
1999-12-22, 00:28:00,VALID,0,VALID,88.2392,VALID,-0.0339617,VALID,20.7076,VALID,229,VALID,1.11061,
1999-12-22, 00:29:00,VALID,0,VALID,88.1959,VALID,0,VALID,20.6976,VALID,221,VALID,1.21643,
1999-12-22, 00:30:00,VALID,0,VALID,88.2455,VALID,-0.0169808,VALID,20.6976,VALID,224,VALID,1.26803,
1999-12-22, 00:31:00,VALID,0,VALID,88.1502,VALID,-0.0339617,VALID,20.7044,VALID,211,VALID,1.40263,
1999-12-22, 00:32:00,VALID,0,VALID,88.257,VALID,-0.0339617,VALID,20.7076,VALID,208,VALID,0.871761,
1999-12-22, 00:33:00,VALID,0,VALID,88.1235,VALID,-0.0169808,VALID,20.7038,VALID,221,VALID,1.12051,
1999-12-22, 00:34:00,VALID,0,VALID,88.0065,VALID,-0.0169808,VALID,20.7111,VALID,225,VALID,1.11113,
1999-12-22, 00:35:00,VALID,0,VALID,87.7344,VALID,-0.0169808,VALID,20.7235,VALID,227,VALID,1.13577,
1999-12-22, 00:36:00,VALID,0,VALID,87.4546,VALID,0,VALID,20.7466,VALID,227,VALID,1.62109,
1999-12-22, 00:37:00,VALID,0,VALID,87.3707,VALID,0,VALID,20.772,VALID,227,VALID,1.622,
1999-12-22, 00:38:00,VALID,0,VALID,87.3376,VALID,0,VALID,20.8078,VALID,219,VALID,1.3258,
1999-12-22, 00:39:00,VALID,0,VALID,87.5678,VALID,-0.0339617,VALID,20.8143,VALID,223,VALID,0.912007,
1999-12-22, 00:40:00,VALID,0,VALID,87.3058,VALID,-0.0339617,VALID,20.814,VALID,216,VALID,0.852796,
1999-12-22, 00:41:00,VALID,0,VALID,87.5576,VALID,-0.0679233,VALID,20.8108,VALID,215,VALID,1.00381,
1999-12-22, 00:42:00,VALID,0,VALID,87.5919,VALID,-0.0339617,VALID,20.8078,VALID,223,VALID,1.15963,
1999-12-22, 00:43:00,VALID,0,VALID,87.6059,VALID,0,VALID,20.8011,VALID,230,VALID,0.94082,
1999-12-22, 00:44:00,VALID,0,VALID,87.2308,VALID,0,VALID,20.8011,VALID,216,VALID,1.43257,
1999-12-22, 00:45:00,VALID,0,VALID,87.3287,VALID,-0.0339617,VALID,20.8143,VALID,180,VALID,1.24941,
1999-12-22, 00:46:00,VALID,0,VALID,87.5818,VALID,-0.0339617,VALID,20.8143,VALID,201,VALID,1.23211,
1999-12-22, 00:47:00,VALID,0,VALID,87.5144,VALID,-0.0169808,VALID,20.7944,VALID,196,VALID,1.48018,
1999-12-22, 00:48:00,VALID,0,VALID,87.5563,VALID,-0.0169808,VALID,20.7876,VALID,191,VALID,1.09671,
1999-12-22, 00:49:00,VALID,0,VALID,87.6644,VALID,-0.0169808,VALID,20.7981,VALID,205,VALID,0.850535,
1999-12-22, 00:50:00,VALID,0,VALID,87.6517,VALID,0,VALID,20.8016,VALID,202,VALID,1.19832,
1999-12-22, 00:51:00,VALID,0,VALID,87.597,VALID,0,VALID,20.7887,VALID,205,VALID,1.61801,
1999-12-22, 00:52:00,VALID,0,VALID,87.6275,VALID,0.0169808,VALID,20.7844,VALID,218,VALID,1.6383,
1999-12-22, 00:53:00,VALID,0,VALID,87.906,VALID,0,VALID,20.7777,VALID,217,VALID,0.849301,
1999-12-22, 00:54:00,VALID,0,VALID,88.1654,VALID,0,VALID,20.7752,VALID,217,VALID,1.05589,
1999-12-22, 00:55:00,VALID,0,VALID,88.257,VALID,0,VALID,20.7424,VALID,195,VALID,1.42027,
1999-12-22, 00:56:00,VALID,0,VALID,88.243,VALID,0,VALID,20.717,VALID,215,VALID,1.82712,
1999-12-22, 00:57:00,VALID,0,VALID,88.5482,VALID,0,VALID,20.7103,VALID,234,VALID,1.23672,
1999-12-22, 00:58:00,VALID,0,VALID,88.6258,VALID,0,VALID,20.6842,VALID,222,VALID,1.29353,
1999-12-22, 00:59:00,VALID,0,VALID,88.9831,VALID,0,VALID,20.6688,VALID,198,VALID,1.32151,
1999-12-22, 01:00:00,VALID,0,VALID,89.1026,VALID,-0.0169808,VALID,20.6192,VALID,216,VALID,1.62294,
1999-12-22, 01:01:00,VALID,0,VALID,89.3099,VALID,-0.0169808,VALID,20.6133,VALID,220,VALID,1.77724,
1999-12-22, 01:02:00,VALID,0,VALID,89.5311,VALID,0,VALID,20.6006,VALID,220,VALID,1.20453,
1999-12-22, 01:03:01,VALID,0,VALID,89.8096,VALID,0,VALID,20.6009,VALID,228,VALID,1.19207,
1999-12-22, 01:04:00,VALID,0,VALID,89.9698,VALID,-0.0169808,VALID,20.5484,VALID,228,VALID,1.03563,
1999-12-22, 01:05:00,VALID,0,VALID,90.0805,VALID,0,VALID,20.5589,VALID,259,VALID,0.66139,
1999-12-22, 01:06:00,VALID,0,VALID,90.3068,VALID,0,VALID,20.536,VALID,226,VALID,1.23965,
1999-12-22, 01:07:00,VALID,0,VALID,90.4963,VALID,-0.0849042,VALID,20.4982,VALID,221,VALID,1.18201,
1999-12-22, 01:08:00,VALID,0,VALID,90.6565,VALID,-0.0849042,VALID,20.482,VALID,237,VALID,0.994655,
1999-12-22, 01:09:00,VALID,0,VALID,90.8244,VALID,-0.0849042,VALID,20.4626,VALID,239,VALID,1.27224,
1999-12-22, 01:10:00,VALID,0,VALID,90.9146,VALID,-0.101885,VALID,20.4529,VALID,221,VALID,1.51943,
1999-12-22, 01:11:00,VALID,0,VALID,90.7735,VALID,-0.101885,VALID,20.4405,VALID,235,VALID,1.26192,
1999-12-22, 01:12:00,VALID,0,VALID,91.0176,VALID,-0.101885,VALID,20.447,VALID,222,VALID,1.37274,
1999-12-22, 01:13:00,VALID,0,VALID,91.1613,VALID,-0.118866,VALID,20.4311,VALID,222,VALID,1.42969,
1999-12-22, 01:14:01,VALID,0,VALID,91.3724,VALID,-0.101885,VALID,20.4179,VALID,228,VALID,1.56271,
1999-12-22, 01:15:00,VALID,0,VALID,91.5301,VALID,-0.0849042,VALID,20.3786,VALID,214,VALID,0.957031,
1999-12-22, 01:16:00,VALID,0,VALID,91.5148,VALID,-0.118866,VALID,20.3753,VALID,240,VALID,1.22944,
1999-12-22, 01:17:00,VALID,0,VALID,91.642,VALID,-0.101885,VALID,20.3662,VALID,229,VALID,1.39004,
1999-12-22, 01:18:00,VALID,0,VALID,91.6801,VALID,-0.101885,VALID,20.35,VALID,226,VALID,1.34971,
1999-12-22, 01:19:00,VALID,0,VALID,91.6522,VALID,-0.101885,VALID,20.3398,VALID,226,VALID,1.72066,
1999-12-22, 01:20:00,VALID,0,VALID,91.6229,VALID,-0.101885,VALID,20.3438,VALID,213,VALID,1.29117,
1999-12-22, 01:21:00,VALID,0,VALID,91.7641,VALID,-0.101885,VALID,20.3309,VALID,218,VALID,1.23643,
1999-12-22, 01:22:00,VALID,0,VALID,91.8556,VALID,-0.0169808,VALID,20.3221,VALID,230,VALID,1.40284,
1999-12-22, 01:23:00,VALID,0,VALID,91.9408,VALID,-0.0169808,VALID,20.3164,VALID,216,VALID,1.53701,
1999-12-22, 01:24:00,VALID,0,VALID,91.9128,VALID,0,VALID,20.297,VALID,230,VALID,1.50655,
1999-12-22, 01:25:01,VALID,0,VALID,91.7666,VALID,0,VALID,20.2932,VALID,213,VALID,1.78207,
1999-12-22, 01:26:00,VALID,0,VALID,91.8378,VALID,0,VALID,20.2997,VALID,216,VALID,1.73357,
1999-12-22, 01:27:00,VALID,0,VALID,91.9192,VALID,0,VALID,20.3067,VALID,215,VALID,1.72556,
1999-12-22, 01:28:00,VALID,0,VALID,91.9103,VALID,-0.0169808,VALID,20.2905,VALID,219,VALID,1.74119,
1999-12-22, 01:29:00,VALID,0,VALID,92.0565,VALID,0,VALID,20.2967,VALID,208,VALID,0.969336,
1999-12-22, 01:30:00,VALID,0,VALID,92.2282,VALID,0,VALID,20.2771,VALID,213,VALID,0.897991,
1999-12-22, 01:31:00,VALID,0,VALID,92.129,VALID,0,VALID,20.2679,VALID,206,VALID,1.01102,
1999-12-22, 01:32:00,VALID,0,VALID,92.185,VALID,0,VALID,20.2612,VALID,212,VALID,1.32936,
1999-12-22, 01:33:00,VALID,0,VALID,92.3681,VALID,0,VALID,20.2555,VALID,183,VALID,0.809333,
1999-12-22, 01:34:00,VALID,0,VALID,92.2994,VALID,0,VALID,20.2517,VALID,200,VALID,1.41747,
1999-12-22, 01:35:00,VALID,0,VALID,92.3694,VALID,-0.0169808,VALID,20.245,VALID,208,VALID,0.738567,
1999-12-22, 01:36:01,VALID,0,VALID,92.3032,VALID,0,VALID,20.245,VALID,211,VALID,1.79306,
1999-12-22, 01:37:00,VALID,0,VALID,92.349,VALID,0.0169808,VALID,20.2487,VALID,209,VALID,1.44984,
1999-12-22, 01:38:00,VALID,0,VALID,92.4215,VALID,0,VALID,20.242,VALID,218,VALID,1.4123,
1999-12-22, 01:39:00,VALID,0,VALID,92.5296,VALID,0,VALID,20.2191,VALID,219,VALID,1.29181,
1999-12-22, 01:40:00,VALID,0,VALID,92.3643,VALID,0,VALID,20.2054,VALID,225,VALID,1.70909,
1999-12-22, 01:41:00,VALID,0,VALID,92.2435,VALID,0,VALID,20.2191,VALID,235,VALID,1.58073,
1999-12-22, 01:42:00,VALID,0,VALID,92.1189,VALID,0,VALID,20.2224,VALID,221,VALID,2.20735,
1999-12-22, 01:43:00,VALID,0,VALID,92.0629,VALID,0.0339617,VALID,20.2254,VALID,225,VALID,1.84827,
1999-12-22, 01:44:00,VALID,0,VALID,92.0807,VALID,0,VALID,20.2385,VALID,214,VALID,2.36472,
1999-12-22, 01:45:00,VALID,0,VALID,92.1328,VALID,0,VALID,20.2388,VALID,225,VALID,1.7528,
1999-12-22, 01:46:00,VALID,0,VALID,92.1786,VALID,0,VALID,20.2122,VALID,232,VALID,1.81715,
1999-12-22, 01:47:01,VALID,0,VALID,92.1074,VALID,0,VALID,20.2264,VALID,215,VALID,1.90195,
1999-12-22, 01:48:00,VALID,0,VALID,92.1341,VALID,-0.0169808,VALID,20.2164,VALID,216,VALID,1.47512,
1999-12-22, 01:49:00,VALID,0,VALID,91.9548,VALID,-0.0169808,VALID,20.2199,VALID,213,VALID,1.6791,
1999-12-22, 01:50:00,VALID,0,VALID,91.9739,VALID,0,VALID,20.2226,VALID,215,VALID,1.40769,
1999-12-22, 01:51:00,VALID,0,VALID,91.8976,VALID,0,VALID,20.2358,VALID,223,VALID,1.57984,
1999-12-22, 01:52:00,VALID,0,VALID,91.8277,VALID,-0.0339617,VALID,20.2323,VALID,222,VALID,1.71347,
1999-12-22, 01:53:00,VALID,0,VALID,91.7564,VALID,0,VALID,20.2458,VALID,222,VALID,1.32237,
1999-12-22, 01:54:00,VALID,0,VALID,91.9128,VALID,-0.0169808,VALID,20.2455,VALID,219,VALID,1.23417,
1999-12-22, 01:55:00,VALID,0,VALID,91.9205,VALID,0,VALID,20.2485,VALID,215,VALID,1.80489,
1999-12-22, 01:56:00,VALID,0,VALID,91.8772,VALID,0.0169808,VALID,20.2425,VALID,214,VALID,1.55046,
1999-12-22, 01:57:00,VALID,0,VALID,91.9345,VALID,0,VALID,20.2425,VALID,217,VALID,1.20847,
1999-12-22, 01:58:00,VALID,0,VALID,91.8404,VALID,-0.0169808,VALID,20.249,VALID,221,VALID,1.27123,
1999-12-22, 01:59:00,VALID,0,VALID,91.8175,VALID,-0.0169808,VALID,20.249,VALID,215,VALID,1.63722,
1999-12-22, 02:00:00,VALID,0,VALID,91.773,VALID,-0.0169808,VALID,20.2654,VALID,220,VALID,1.3752,
1999-12-22, 02:01:00,VALID,0,VALID,91.7997,VALID,-0.0169808,VALID,20.259,VALID,216,VALID,1.17051,
1999-12-22, 02:02:00,VALID,0,VALID,91.8264,VALID,-0.0679233,VALID,20.2555,VALID,240,VALID,1.28304,
1999-12-22, 02:03:00,VALID,0,VALID,91.8823,VALID,-0.0339617,VALID,20.2652,VALID,212,VALID,1.06871,
1999-12-22, 02:04:00,VALID,0,VALID,91.7793,VALID,-0.0169808,VALID,20.2487,VALID,220,VALID,1.63898,
1999-12-22, 02:05:00,VALID,0,VALID,91.6674,VALID,-0.0339617,VALID,20.2555,VALID,221,VALID,1.45988,
1999-12-22, 02:06:00,VALID,0,VALID,91.7336,VALID,0,VALID,20.2684,VALID,222,VALID,1.20212,
1999-12-22, 02:07:00,VALID,0,VALID,91.5263,VALID,-0.0169808,VALID,20.2584,VALID,227,VALID,1.87138,
1999-12-22, 02:08:00,VALID,0,VALID,91.3305,VALID,-0.0509425,VALID,20.2851,VALID,232,VALID,1.89005,
1999-12-22, 02:09:00,VALID,0,VALID,91.2669,VALID,-0.0509425,VALID,20.3077,VALID,215,VALID,1.44531,
1999-12-22, 02:10:00,VALID,0,VALID,91.258,VALID,-0.0679233,VALID,20.3169,VALID,227,VALID,1.18145,
1999-12-22, 02:11:00,VALID,0,VALID,91.3826,VALID,-0.0509425,VALID,20.3433,VALID,226,VALID,1.28716,
1999-12-22, 02:12:00,VALID,0,VALID,91.3546,VALID,-0.0339617,VALID,20.3231,VALID,223,VALID,1.56044,
1999-12-22, 02:13:00,VALID,0,VALID,91.4729,VALID,-0.0509425,VALID,20.3271,VALID,232,VALID,1.19892,
1999-12-22, 02:14:00,VALID,0,VALID,91.4703,VALID,-0.0339617,VALID,20.3072,VALID,230,VALID,1.55743,
1999-12-22, 02:15:00,VALID,0,VALID,91.5682,VALID,0,VALID,20.3042,VALID,214,VALID,1.37274,
1999-12-22, 02:16:00,VALID,0,VALID,91.5886,VALID,0,VALID,20.2943,VALID,225,VALID,1.16756,
1999-12-22, 02:17:00,VALID,0,VALID,91.5886,VALID,-0.0339617,VALID,20.2778,VALID,216,VALID,1.3131,
1999-12-22, 02:18:00,VALID,0,VALID,91.5988,VALID,-0.0169808,VALID,20.2811,VALID,232,VALID,1.46199,
1999-12-22, 02:19:00,VALID,0,VALID,91.586,VALID,0,VALID,20.2883,VALID,203,VALID,1.49375,
1999-12-22, 02:20:00,VALID,0,VALID,91.6344,VALID,-0.0339617,VALID,20.2778,VALID,222,VALID,1.7023,
1999-12-22, 02:21:00,VALID,0,VALID,91.4398,VALID,-0.0169808,VALID,20.2751,VALID,223,VALID,1.72344,
1999-12-22, 02:22:00,VALID,0,VALID,91.4665,VALID,-0.0509425,VALID,20.294,VALID,231,VALID,1.31086,
1999-12-22, 02:23:00,VALID,0,VALID,91.5339,VALID,-0.0339617,VALID,20.2938,VALID,231,VALID,1.71665,
1999-12-22, 02:24:00,VALID,0,VALID,91.5822,VALID,0,VALID,20.2875,VALID,218,VALID,2.25929,
1999-12-22, 02:25:00,VALID,0,VALID,91.6623,VALID,0,VALID,20.2818,VALID,212,VALID,1.60958,
1999-12-22, 02:26:00,VALID,0,VALID,91.8022,VALID,-0.0169808,VALID,20.2614,VALID,237,VALID,1.27464,
1999-12-22, 02:27:00,VALID,0,VALID,91.9777,VALID,-0.0169808,VALID,20.2587,VALID,227,VALID,1.36801,
1999-12-22, 02:28:00,VALID,0,VALID,91.8569,VALID,-0.0169808,VALID,20.2363,VALID,224,VALID,2.66132,
1999-12-22, 02:29:00,VALID,0,VALID,91.8823,VALID,-0.0339617,VALID,20.2264,VALID,216,VALID,2.17229,
1999-12-22, 02:30:00,VALID,0,VALID,91.8798,VALID,-0.0169808,VALID,20.2293,VALID,221,VALID,1.64764,
1999-12-22, 02:31:00,VALID,0,VALID,91.9319,VALID,-0.0339617,VALID,20.2293,VALID,223,VALID,1.41867,
1999-12-22, 02:32:00,VALID,0,VALID,91.9357,VALID,-0.0679233,VALID,20.2264,VALID,221,VALID,1.80849,
1999-12-22, 02:33:00,VALID,0,VALID,91.937,VALID,0,VALID,20.2264,VALID,212,VALID,1.61563,
1999-12-22, 02:34:00,VALID,0,VALID,92.0158,VALID,-0.0169808,VALID,20.2299,VALID,223,VALID,1.38259,
1999-12-22, 02:35:00,VALID,0,VALID,92.213,VALID,0,VALID,20.2202,VALID,211,VALID,0.981571,
1999-12-22, 02:36:00,VALID,0,VALID,92.1672,VALID,-0.0169808,VALID,20.204,VALID,223,VALID,1.61369,
1999-12-22, 02:37:00,VALID,0,VALID,92.0171,VALID,0,VALID,20.1975,VALID,216,VALID,1.93623,
1999-12-22, 02:38:00,VALID,0,VALID,91.8811,VALID,0,VALID,20.1973,VALID,209,VALID,1.60697,
1999-12-22, 02:39:00,VALID,0,VALID,91.8518,VALID,-0.0169808,VALID,20.2167,VALID,206,VALID,1.42473,
1999-12-22, 02:40:00,VALID,0,VALID,91.9955,VALID,0,VALID,20.2331,VALID,216,VALID,1.37557,
1999-12-22, 02:41:01,VALID,0,VALID,92.0273,VALID,0,VALID,20.2097,VALID,213,VALID,1.73314,
1999-12-22, 02:42:00,VALID,0,VALID,92.115,VALID,-0.0169808,VALID,20.197,VALID,219,VALID,1.85,
1999-12-22, 02:43:00,VALID,0,VALID,92.0909,VALID,0,VALID,20.1744,VALID,219,VALID,1.78632,
1999-12-22, 02:44:00,VALID,0,VALID,92.0082,VALID,-0.0169808,VALID,20.194,VALID,196,VALID,2.23581,
1999-12-22, 02:45:00,VALID,0,VALID,92.0667,VALID,-0.0169808,VALID,20.1938,VALID,203,VALID,1.60357,
1999-12-22, 02:46:00,VALID,0,VALID,92.1646,VALID,-0.0509425,VALID,20.2003,VALID,219,VALID,1.23775,
1999-12-22, 02:47:00,VALID,0,VALID,92.1723,VALID,0,VALID,20.1876,VALID,212,VALID,1.34663,
1999-12-22, 02:48:00,VALID,0,VALID,92.1812,VALID,0,VALID,20.1744,VALID,212,VALID,1.46094,
1999-12-22, 02:49:00,VALID,0,VALID,92.2511,VALID,0,VALID,20.1714,VALID,221,VALID,1.6899,
1999-12-22, 02:50:00,VALID,0,VALID,92.2117,VALID,-0.0339617,VALID,20.158,VALID,221,VALID,1.85684,
1999-12-22, 02:51:00,VALID,0,VALID,92.0769,VALID,-0.0169808,VALID,20.1719,VALID,230,VALID,1.97109,
1999-12-22, 02:52:01,VALID,0,VALID,92.0667,VALID,-0.0339617,VALID,20.1744,VALID,205,VALID,1.27673,
1999-12-22, 02:53:00,VALID,0,VALID,91.9281,VALID,0,VALID,20.197,VALID,215,VALID,1.45898,
1999-12-22, 02:54:00,VALID,0,VALID,91.9396,VALID,-0.0169808,VALID,20.1975,VALID,198,VALID,1.67804,
1999-12-22, 02:55:00,VALID,0,VALID,91.9281,VALID,0,VALID,20.2067,VALID,218,VALID,1.23476,
1999-12-22, 02:56:00,VALID,0,VALID,91.8518,VALID,-0.0169808,VALID,20.207,VALID,213,VALID,1.73501,
1999-12-22, 02:57:00,VALID,0,VALID,91.9599,VALID,0,VALID,20.207,VALID,227,VALID,0.835732,
1999-12-22, 02:58:00,VALID,0,VALID,92.1074,VALID,-0.0169808,VALID,20.2005,VALID,198,VALID,0.707933,
1999-12-22, 02:59:00,VALID,0,VALID,91.9993,VALID,0,VALID,20.1975,VALID,199,VALID,1.32237,
1999-12-22, 03:00:00,VALID,0,VALID,92.0426,VALID,-0.0339617,VALID,20.1843,VALID,210,VALID,1.26309,
1999-12-22, 03:01:00,VALID,0,VALID,92.0604,VALID,-0.0169808,VALID,20.1741,VALID,213,VALID,1.34519,
1999-12-22, 03:02:00,VALID,0,VALID,91.909,VALID,-0.0169808,VALID,20.1744,VALID,230,VALID,1.84936,
1999-12-22, 03:03:00,VALID,0,VALID,91.7539,VALID,-0.0169808,VALID,20.1975,VALID,225,VALID,1.93029,
1999-12-22, 03:04:00,VALID,0,VALID,91.8213,VALID,-0.0169808,VALID,20.2167,VALID,224,VALID,1.73778,
1999-12-22, 03:05:00,VALID,0,VALID,91.792,VALID,-0.0169808,VALID,20.2032,VALID,217,VALID,1.27832,
1999-12-22, 03:06:00,VALID,0,VALID,91.6878,VALID,-0.0169808,VALID,20.2261,VALID,220,VALID,1.58304,
1999-12-22, 03:07:00,VALID,0,VALID,91.6471,VALID,0,VALID,20.2296,VALID,221,VALID,0.991987,
1999-12-22, 03:08:00,VALID,0,VALID,91.6865,VALID,0.0169808,VALID,20.2428,VALID,221,VALID,0.744449,
1999-12-22, 03:09:00,VALID,0,VALID,91.7386,VALID,-0.0169808,VALID,20.2388,VALID,233,VALID,0.878801,
1999-12-22, 03:10:00,VALID,0,VALID,91.862,VALID,0,VALID,20.2562,VALID,259,VALID,0.626402,
1999-12-22, 03:11:00,VALID,0,VALID,91.8226,VALID,-0.0169808,VALID,20.239,VALID,224,VALID,1.26372,
1999-12-22, 03:12:00,VALID,0,VALID,91.6649,VALID,0,VALID,20.2326,VALID,220,VALID,1.62329,
1999-12-22, 03:13:01,VALID,0,VALID,91.7526,VALID,-0.0169808,VALID,20.249,VALID,219,VALID,1.05058,
1999-12-22, 03:14:00,VALID,0,VALID,91.6611,VALID,0,VALID,20.2328,VALID,212,VALID,1.59824,
1999-12-22, 03:15:00,VALID,0,VALID,91.6662,VALID,0,VALID,20.2331,VALID,217,VALID,1.47804,
1999-12-22, 03:16:00,VALID,0,VALID,91.745,VALID,0,VALID,20.239,VALID,213,VALID,0.502467,
1999-12-22, 03:17:00,VALID,0,VALID,91.8162,VALID,0,VALID,20.2396,VALID,194,VALID,0.629006,
1999-12-22, 03:18:00,VALID,0,VALID,91.6458,VALID,-0.0339617,VALID,20.2326,VALID,217,VALID,0.893792,
1999-12-22, 03:19:00,VALID,0,VALID,91.7348,VALID,0,VALID,20.2326,VALID,188,VALID,0.438322,
1999-12-22, 03:20:00,VALID,0,VALID,91.6039,VALID,-0.0169808,VALID,20.2493,VALID,209,VALID,0.684827,
1999-12-22, 03:21:00,VALID,0,VALID,91.7208,VALID,-0.0509425,VALID,20.2525,VALID,202,VALID,0.871595,
1999-12-22, 03:22:00,VALID,0,VALID,91.6039,VALID,0,VALID,20.2425,VALID,224,VALID,0.792019,
1999-12-22, 03:23:00,VALID,0,VALID,91.5848,VALID,0,VALID,20.249,VALID,220,VALID,1.22285,
1999-12-22, 03:24:01,VALID,0,VALID,91.3991,VALID,0,VALID,20.242,VALID,216,VALID,1.34025,
1999-12-22, 03:25:00,VALID,0,VALID,91.5072,VALID,-0.0169808,VALID,20.2587,VALID,220,VALID,1.30215,
1999-12-22, 03:26:00,VALID,0,VALID,91.3711,VALID,-0.0169808,VALID,20.2714,VALID,221,VALID,1.50411,
1999-12-22, 03:27:00,VALID,0,VALID,91.3241,VALID,0,VALID,20.2716,VALID,201,VALID,2.07393,
1999-12-22, 03:28:00,VALID,0,VALID,91.5136,VALID,0,VALID,20.2784,VALID,208,VALID,1.5152,
1999-12-22, 03:29:00,VALID,0,VALID,91.5314,VALID,-0.0169808,VALID,20.2619,VALID,212,VALID,1.56908,
1999-12-22, 03:30:00,VALID,0,VALID,91.5517,VALID,0,VALID,20.249,VALID,218,VALID,1.58774,
1999-12-22, 03:31:00,VALID,0,VALID,91.6789,VALID,0.0169808,VALID,20.239,VALID,204,VALID,1.33984,
1999-12-22, 03:32:00,VALID,0,VALID,91.7946,VALID,0,VALID,20.2197,VALID,194,VALID,1.76795,
1999-12-22, 03:33:00,VALID,0,VALID,91.8518,VALID,0,VALID,20.207,VALID,194,VALID,1.63816,
1999-12-22, 03:34:00,VALID,0,VALID,92.1163,VALID,0,VALID,20.1873,VALID,187,VALID,1.43069,
1999-12-22, 03:35:00,VALID,0,VALID,92.2536,VALID,-0.0169808,VALID,20.1717,VALID,183,VALID,1.38702,
1999-12-22, 03:36:00,VALID,0,VALID,92.5003,VALID,0,VALID,20.1518,VALID,177,VALID,1.23217,
1999-12-22, 03:37:00,VALID,0,VALID,92.7877,VALID,0,VALID,20.1289,VALID,166,VALID,1.0498,
1999-12-22, 03:38:00,VALID,0,VALID,92.7775,VALID,0,VALID,20.1,VALID,187,VALID,1.51696,
1999-12-22, 03:39:00,VALID,0,VALID,92.6936,VALID,0,VALID,20.0871,VALID,181,VALID,1.02804,
1999-12-22, 03:40:00,VALID,0,VALID,92.8767,VALID,0,VALID,20.0871,VALID,156,VALID,0.57278,
1999-12-22, 03:41:00,VALID,0,VALID,92.8831,VALID,0,VALID,20.0874,VALID,165,VALID,1.18433,
1999-12-22, 03:42:00,VALID,0,VALID,92.9556,VALID,-0.0169808,VALID,20.0844,VALID,174,VALID,1.05088,
1999-12-22, 03:43:00,VALID,0,VALID,93.248,VALID,-0.0169808,VALID,20.0618,VALID,155,VALID,0.877668,
1999-12-22, 03:44:00,VALID,0,VALID,93.4133,VALID,-0.0169808,VALID,20.0421,VALID,164,VALID,1.04973,
1999-12-22, 03:45:00,VALID,0,VALID,93.4782,VALID,-0.0339617,VALID,20.0133,VALID,172,VALID,1.38692,
1999-12-22, 03:46:00,VALID,0,VALID,93.5151,VALID,-0.0169808,VALID,19.9871,VALID,155,VALID,1.87793,
1999-12-22, 03:47:00,VALID,0,VALID,93.6193,VALID,0,VALID,19.9802,VALID,150,VALID,1.57411,
1999-12-22, 03:48:00,VALID,0,VALID,93.8075,VALID,0,VALID,19.9812,VALID,170,VALID,1.35177,
1999-12-22, 03:49:00,VALID,0,VALID,93.8164,VALID,0,VALID,19.9578,VALID,180,VALID,1.55829,
1999-12-22, 03:50:00,VALID,0,VALID,93.8749,VALID,0,VALID,19.9352,VALID,186,VALID,2.06736,
1999-12-22, 03:51:00,VALID,0,VALID,93.9067,VALID,0,VALID,19.9357,VALID,175,VALID,1.82072,
1999-12-22, 03:52:00,VALID,0,VALID,93.9881,VALID,0,VALID,19.9292,VALID,185,VALID,1.46937,
1999-12-22, 03:53:00,VALID,0,VALID,94.1521,VALID,-0.0509425,VALID,19.916,VALID,206,VALID,1.42107,
1999-12-22, 03:54:00,VALID,0,VALID,93.8431,VALID,-0.0169808,VALID,19.9093,VALID,198,VALID,1.05595,
1999-12-22, 03:55:00,VALID,0,VALID,93.6422,VALID,0,VALID,19.9387,VALID,212,VALID,1.3834,
1999-12-22, 03:56:00,VALID,0,VALID,93.5659,VALID,0,VALID,19.9678,VALID,193,VALID,1.36328,
1999-12-22, 03:57:00,VALID,0,VALID,93.4108,VALID,-0.0339617,VALID,19.9842,VALID,211,VALID,1.33398,
1999-12-22, 03:58:01,VALID,0,VALID,93.3218,VALID,-0.0169808,VALID,20.01,VALID,196,VALID,1.19449,
1999-12-22, 03:59:00,VALID,0,VALID,93.4235,VALID,0,VALID,20.0167,VALID,184,VALID,1.04002,
1999-12-22, 04:00:00,VALID,0,VALID,93.599,VALID,-0.0169808,VALID,19.9998,VALID,190,VALID,0.993454,
1999-12-22, 04:01:00,VALID,0,VALID,93.6041,VALID,-0.0169808,VALID,19.9871,VALID,192,VALID,0.968956,
1999-12-22, 04:02:00,VALID,0,VALID,93.6371,VALID,-0.0339617,VALID,19.9939,VALID,189,VALID,1.24239,
1999-12-22, 04:03:00,VALID,0,VALID,93.6359,VALID,0,VALID,19.9804,VALID,207,VALID,0.857113,
1999-12-22, 04:04:00,VALID,0,VALID,93.5519,VALID,-0.0169808,VALID,19.9812,VALID,201,VALID,0.874367,
1999-12-22, 04:05:00,VALID,0,VALID,93.5113,VALID,0,VALID,19.9804,VALID,212,VALID,0.9669,
1999-12-22, 04:06:00,VALID,0,VALID,93.4133,VALID,0,VALID,19.9934,VALID,199,VALID,0.933494,
1999-12-22, 04:07:00,VALID,0,VALID,93.4337,VALID,-0.0169808,VALID,19.9968,VALID,222,VALID,0.63101,
1999-12-22, 04:08:00,VALID,0,VALID,93.3561,VALID,0,VALID,19.9968,VALID,229,VALID,0.902644,
1999-12-22, 04:09:01,VALID,0,VALID,93.1412,VALID,0,VALID,19.9966,VALID,206,VALID,0.955273,